sat.trackr.live / text

‹ back to catalog

2021-050D

NORAD 48843 · 2021-050D

PAYLOAD ACTIVE UNKNOWN

§ Identity

Operator
Country
PRC
Launch date
2021-06-11
Launch site
TAISC
Launch vehicle
Mass (kg)
RCS (m²)

External: N2YO · Heavens-Above · Gunter

§ Orbital elements

Epoch: 2026-05-25T05:04:48.161856Z

Period
94.55 min
Inclination
97.3337°
Eccentricity
0.0005204
Mean motion
15.23060846 rev/d
Perigee alt
493.0 km
Apogee alt
500.2 km
Semi-major
6,874.8 km
B*
1.7935e-4
RAAN
221.7738°
Arg perigee
3.2003°
Mean anomaly
356.9266°
Rev number
27,546

§ Raw data

2021-050D1 48843U 21050D   26145.21166854  .00004156  00000+0  17935-3 0  99992 48843  97.3337 221.7738 0005204   3.2003 356.9266 15.23060846275466

JSON: /api/v1/satellites/48843 · /tle

For live sub-satellite position, see the globe view (requires WebGL).

§ Visibility from observer

Set your observer location to see the next 7 days of passes ≥ 10°. The values pass through the URL so the page stays shareable.

No JS? Fill the form by hand. The geolocation button needs JavaScript.

§ Radio — SatNOGS DB

ModeDescriptionDownlinkUplink
FM S-band telemetry 2.284 GHz

1 transmitter · refreshed weekly from db.satnogs.org